This is the latest recevied weather packets stored in our database for station/object AA4XD. If no packets are shown the sender has not sent any weather packets the latest 10 day(s).
| Time | Temp. | Humidity | Pressure | Rain* | Wind** | Luminosity | Snow |
|---|---|---|---|---|---|---|---|
| 1777981420 | 16.11° C | 89% | 1014.9 hPa | 0 mm | - | 50 W/m² | - |
| 1777981116 | 15.56° C | 89% | 1014.8 hPa | 0 mm | - | 43 W/m² | - |
| 1777980813 | 15.56° C | 89% | 1014.9 hPa | 0 mm | - | 39 W/m² | - |
| 1777980508 | 15.56° C | 89% | 1014.8 hPa | 0 mm | - | 36 W/m² | - |
| 1777980206 | 15° C | 89% | 1014.9 hPa | 0 mm | - | 32 W/m² | - |
| 1777979902 | 15° C | 90% | 1015 hPa | 0 mm | - | 28 W/m² | - |
| 1777979597 | 15° C | 89% | 1015.1 hPa | 0 mm | - | 24 W/m² | - |
| 1777979294 | 15° C | 90% | 1014.9 hPa | 0 mm | - | 20 W/m² | - |
| 1777978991 | 15° C | 90% | 1014.8 hPa | 0 mm | - | 15 W/m² | - |
| 1777978688 | 15° C | 90% | 1014.7 hPa | 0 mm | - | 10 W/m² | - |
| 1777978383 | 14.44° C | 90% | 1014.9 hPa | 0 mm | - | 6 W/m² | - |
| 1777978080 | 14.44° C | 90% | 1014.5 hPa | 0 mm | - | 4 W/m² | - |
| 1777977778 | 15° C | 89% | 1014.5 hPa | 0 mm | - | 2 W/m² | - |
| 1777977474 | 15° C | 89% | 1014.7 hPa | 0 mm | - | 1 W/m² | - |
| 1777977171 | 15° C | 89% | 1014.5 hPa | 0 mm | - | 0 W/m² | - |
| 1777976869 | 15° C | 89% | 1014.4 hPa | 0 mm | - | 0 W/m² | - |
| 1777976566 | 15° C | 89% | 1014.3 hPa | 0 mm | - | 0 W/m² | - |
| 1777976265 | 15° C | 89% | 1014.2 hPa | 0 mm | - | 0 W/m² | - |
| 1777975961 | 15° C | 89% | 1014.3 hPa | 0 mm | - | 0 W/m² | - |
| 1777975658 | 15° C | 89% | 1014.3 hPa | 0 mm | - | 0 W/m² | - |
| 1777975354 | 15° C | 88% | 1014.2 hPa | 0 mm | - | 0 W/m² | - |
| 1777975049 | 15° C | 88% | 1014.1 hPa | 0 mm | - | 0 W/m² | - |
| 1777974748 | 15° C | 87% | 1014.3 hPa | 0 mm | - | 0 W/m² | - |
| 1777974443 | 15° C | 88% | 1014.2 hPa | 0 mm | - | 0 W/m² | - |
| 1777974140 | 15° C | 87% | 1014.4 hPa | 0 mm | - | 0 W/m² | - |
* Rain latest hour (hover to see other rain measurements)
** Current wind speed in m/s (hover to see current wind gust speed)